NOAA 16 DEB, 41283

Orbit data source: Space-Track

NOAA 16 DEB, 41283 is space debris in SSO originally from a launch on Thu, 21 Sep 2000 UTC launched from the Air Force Western Test Range (AFWTR). Debris objects in space refer to the collection of defunct objects orbiting the Earth. Examples of debris include non-operational satellites, rocket bodies, and fragments generated from explosions, collisions, or faulty payload assembly.

Loading next visibility...
Identifier
41283, 2000-055GK
Orbit
SSO
Country
Flag of USUS
Related business
Manufacturer
Unknown
Mission
Spacecraft
Bus & Motor
Unknown
Mass
Unknown
Launch date (UTC)
2000-09-21 (25 years ago)
Launch vehicle
Unknown
Launch site
Air Force Western Test Range (AFWTR)
Object type
Payload
Rocket body
Debris
Shape & HBR
Unknown shape, 0.1 m
Radar Cross Section
Small (<0.1 m²)

Expand to show TLE details & history
Last TLE update: 9 hours ago

TLE from 9 hours ago
0 NOAA 16 DEB
1 41283U 00055GK  25293.21680886  .00005196  00000-0  30265-2 0  9997
2 41283  98.8251 271.7765 0061457 317.4757  42.1661 14.08012929502851
Epoch: 2025-10-20T05:12Z
TLE epoch observation values (Epoch: 2025-10-20T05:12:12.285Z)
Latitude
-0.00004°
Longitude
164.80302°
Altitude
836.192 km
Speed
7.452 km/s
True Right ascension
18h 07m 06s
True Declination
0° 00' 00"
Sunlit
Object was in daylight at epoch
Visualization orbit readout
Latitude
Unknown
Longitude
Unknown
Altitude
Unknown
Speed
Unknown
Apparent Right ascension
Unknown
Apparent Declination
Unknown
Sunlit
N/A
Visualization observer readout
Local Sidereal Time
09:38:02
Azimuth
Unknown
Elevation
Unknown
Doppler factor
Unknown
Orbital elements
Apogee altitude
907.864 km
Perigee altitude
818.855 km
Semi-major axis
7,241.496 km
Eccentricity
0.00615
Inclination
98.8251°
RAAN
271.7765°
Arg. of periapsis
317.4757°
True anomaly
42.64155°
Mean anomaly
42.1661°
Eccentric anomaly
42.40355°
Mean motion
3.52209 °/min
Orbital period
102.21 mins
BSTAR
0.0030265
Loading maneuver chart data...
Computing Atmospheric mass density...
Loading historical data...
Loading historical data...
Loading historical data...
Loading historical data...
Loading historical data...
Loading historical data...
Loading historical data...

Documentation

Showing up to 5 results
|